GW2366 Weather Reports


Display with metric or nautical units.
time (UTC)temp
F
wind
direction
speed
MPH
gust
MPH
rain 1hr
in
rain 24hr
in
rain mn
in
humidity
%
barometer
mb
20260508071026 50 5 0.0 0.0 0.00 0.00 0.00 99 1017.3
20260508070524 50 22 1.0 1.0 0.00 0.00 0.00 99 1017.4
20260508070022 50 21 1.0 1.0 0.00 0.00 0.00 99 1017.3
20260508065519 50 354 0.0 1.0 0.00 0.01 0.01 99 1017.1
20260508065018 50 66 1.0 2.0 0.00 0.01 0.01 99 1017.0
20260508064515 49 354 0.0 0.0 0.00 0.01 0.01 99 1017.2
20260508064013 48 286 0.0 0.0 0.00 0.01 0.01 99 1017.4
20260508063510 47 286 0.0 0.0 0.00 0.01 0.01 99 1017.3
20260508063007 47 286 0.0 0.0 0.00 0.01 0.01 99 1017.3
20260508062505 47 286 0.0 0.0 0.00 0.01 0.01 99 1017.3
20260508062001 47 286 0.0 0.0 0.00 0.01 0.01 99 1017.4
20260508061500 48 286 0.0 0.0 0.00 0.01 0.01 99 1017.3
20260508060955 48 286 0.0 0.0 0.00 0.01 0.01 99 1017.3
20260508060453 48 285 0.0 0.0 0.00 0.01 0.01 99 1017.3
20260508055949 48 286 0.0 0.0 0.00 0.01 0.01 99 1017.2
20260508055446 48 286 0.0 0.0 0.00 0.01 0.01 99 1017.4
20260508054942 48 286 0.0 0.0 0.00 0.01 0.01 99 1017.2
20260508054439 48 286 0.0 0.0 0.00 0.01 0.01 99 1017.5
20260508053936 49 286 0.0 0.0 0.00 0.01 0.01 99 1017.3
20260508053433 49 286 0.0 0.0 0.00 0.01 0.01 99 1017.4
20260508052931 49 286 0.0 0.0 0.00 0.01 0.01 99 1017.3
20260508052428 49 285 0.0 0.0 0.00 0.01 0.01 99 1017.3
20260508051924 49 285 0.0 0.0 0.00 0.01 0.01 99 1017.4
20260508051420 49 288 0.0 0.0 0.00 0.01 0.01 99 1017.4
20260508050916 49 288 0.0 0.0 0.00 0.01 0.01 99 1017.3
20260508050413 50 288 0.0 0.0 0.00 0.01 0.01 99 1017.3
20260508045909 50 289 0.0 0.0 0.00 0.01 0.01 99 1017.2
20260508045407 50 289 0.0 0.0 0.00 0.01 0.01 99 1017.2
20260508044904 50 288 0.0 0.0 0.00 0.01 0.01 99 1017.3
20260508044402 50 288 0.0 0.0 0.00 0.01 0.01 98 1017.3
20260508043857 50 283 0.0 0.0 0.00 0.01 0.01 98 1017.3
20260508043354 50 282 0.0 0.0 0.00 0.01 0.01 98 1017.3
20260508042851 50 273 0.0 0.0 0.00 0.01 0.01 98 1017.0
20260508042348 51 282 0.0 0.0 0.00 0.01 0.01 98 1017.0
20260508041845 51 290 0.0 0.0 0.00 0.01 0.01 98 1017.0
20260508041341 51 291 0.0 0.0 0.00 0.01 0.01 98 1016.9
20260508040838 51 291 0.0 0.0 0.00 0.01 0.01 97 1016.9
20260508040335 51 305 0.0 0.0 0.00 0.01 0.01 97 1016.9
20260508035832 51 293 1.0 1.0 0.00 0.01 0.01 96 1016.8
20260508035324 51 279 0.0 0.0 0.00 0.01 0.01 96 1016.8
20260508034821 52 277 0.0 1.0 0.00 0.01 0.01 96 1016.5
20260508034318 52 281 0.0 0.0 0.00 0.01 0.01 96 1016.6
20260508033815 52 282 0.0 0.0 0.00 0.01 0.01 95 1016.3
20260508033313 53 282 0.0 0.0 0.00 0.01 0.01 94 1016.5
20260508032810 53 282 0.0 0.0 0.00 0.01 0.01 94 1016.5
20260508032308 54 282 0.0 0.0 0.00 0.01 0.01 94 1016.4
20260508031804 54 280 0.0 1.0 0.00 0.01 0.01 93 1016.3
20260508031301 55 301 0.0 0.0 0.00 0.01 0.01 92 1016.5
20260508030757 55 282 1.0 1.0 0.00 0.01 0.01 92 1016.2
20260508030255 56 279 0.0 1.0 0.00 0.01 0.01 91 1016.4
20260508025751 57 290 1.0 1.0 0.00 0.01 0.01 90 1016.3
20260508025248 57 288 1.0 1.0 0.00 0.01 0.01 89 1016.2
20260508024744 58 278 0.0 1.0 0.00 0.01 0.01 88 1016.2
20260508024241 59 243 1.0 2.0 0.00 0.01 0.01 86 1016.2
20260508023738 60 290 0.0 0.0 0.00 0.01 0.01 86 1016.2
20260508023236 61 243 1.0 2.0 0.00 0.01 0.01 84 1016.2
20260508022731 61 237 3.0 3.0 0.00 0.01 0.01 84 1016.2
20260508022228 62 295 0.0 0.0 0.00 0.01 0.01 84 1016.3
20260508021725 63 288 0.0 1.0 0.00 0.01 0.01 83 1016.1
20260508021220 63 285 0.0 0.0 0.00 0.01 0.01 83 1016.3
20260508020718 64 299 1.0 1.0 0.00 0.01 0.01 81 1016.2
20260508020215 64 270 1.0 1.0 0.00 0.01 0.01 80 1016.3
20260508015712 66 282 1.0 2.0 0.00 0.01 0.01 78 1016.2
20260508015209 66 305 0.0 1.0 0.00 0.01 0.01 77 1016.3
20260508014706 65 309 0.0 1.0 0.00 0.01 0.01 79 1016.2
20260508014202 66 297 0.0 0.0 0.00 0.01 0.01 79 1016.4
20260508013658 66 294 1.0 1.0 0.00 0.01 0.01 77 1016.5
20260508013155 67 257 1.0 1.0 0.00 0.01 0.01 76 1016.5
20260508012653 66 245 1.0 2.0 0.00 0.01 0.01 78 1016.4
20260508012149 66 316 0.0 0.0 0.00 0.01 0.01 78 1016.5
20260508011648 66 329 0.0 0.0 0.00 0.01 0.01 78 1016.5
20260508011145 66 308 0.0 0.0 0.00 0.01 0.01 77 1016.5
20260508010641 66 297 0.0 1.0 0.00 0.01 0.01 79 1016.5
20260508010139 65 228 2.0 2.0 0.00 0.01 0.01 79 1016.5
20260508005636 65 292 1.0 1.0 0.00 0.01 0.01 78 1016.5
20260508005133 65 251 1.0 1.0 0.00 0.01 0.01 79 1016.6
20260508004628 65 278 1.0 1.0 0.00 0.01 0.01 79 1016.8
20260508004125 65 264 1.0 1.0 0.00 0.01 0.01 79 1016.7
20260508003621 65 306 0.0 1.0 0.00 0.01 0.01 78 1016.7
20260508003119 65 286 1.0 1.0 0.00 0.01 0.01 79 1016.8
20260508002616 65 285 1.0 2.0 0.00 0.01 0.01 78 1016.7
20260508002114 65 276 1.0 1.0 0.00 0.01 0.01 77 1016.8
20260508001608 66 280 2.0 2.0 0.00 0.01 0.01 76 1016.6
20260508001105 65 322 2.0 2.0 0.00 0.01 0.01 77 1016.9
20260508000601 65 293 2.0 2.0 0.00 0.01 0.01 77 1016.6
20260508000058 65 305 2.0 3.0 0.00 0.01 0.01 76 1016.6
20260507235555 65 293 3.0 5.0 0.00 0.01 0.01 76 1016.7
20260507235052 64 280 1.0 1.0 0.00 0.01 0.01 77 1016.7
20260507234549 65 235 4.0 6.0 0.00 0.01 0.01 76 1016.7
20260507234045 65 272 3.0 5.0 0.00 0.01 0.01 76 1016.6
20260507233542 65 302 1.0 2.0 0.00 0.01 0.01 76 1016.8
20260507233041 65 329 4.0 6.0 0.00 0.01 0.01 75 1016.7
20260507232536 66 295 2.0 2.0 0.00 0.01 0.01 75 1017.0
20260507232034 67 286 1.0 1.0 0.00 0.01 0.01 75 1016.9
20260507231530 66 270 1.0 1.0 0.00 0.01 0.01 76 1017.0
20260507231028 67 292 5.0 6.0 0.00 0.01 0.01 73 1017.2
20260507230524 67 303 3.0 3.0 0.00 0.01 0.01 74 1017.1
20260507230021 68 291 2.0 2.0 0.00 0.01 0.01 74 1017.2
20260507225516 68 281 3.0 3.0 0.00 0.01 0.01 75 1017.2
20260507225012 69 291 2.0 2.0 0.00 0.01 0.01 71 1017.2
20260507224508 70 275 4.0 6.0 0.00 0.01 0.01 71 1017.3
20260507224005 70 279 3.0 3.0 0.00 0.01 0.01 72 1017.2
20260507223501 70 299 2.0 2.0 0.00 0.01 0.01 71 1017.3
20260507222958 71 268 1.0 1.0 0.00 0.01 0.01 74 1017.5
20260507222455 71 174 2.0 2.0 0.00 0.01 0.01 74 1017.5
20260507221951 72 275 3.0 5.0 0.00 0.01 0.01 70 1017.2
20260507221448 73 301 1.0 2.0 0.00 0.01 0.01 70 1017.5
20260507220945 73 271 2.0 3.0 0.00 0.01 0.01 73 1017.3
20260507220442 74 292 3.0 3.0 0.00 0.01 0.01 68 1017.4
20260507215939 73 274 1.0 1.0 0.00 0.01 0.01 67 1017.4
20260507215435 73 297 0.0 0.0 0.00 0.01 0.01 69 1017.5
20260507214933 73 280 2.0 2.0 0.00 0.01 0.01 71 1017.6
20260507214431 73 261 2.0 3.0 0.00 0.01 0.01 69 1017.5
20260507213926 73 330 1.0 1.0 0.00 0.01 0.01 69 1017.7
20260507213423 72 255 1.0 1.0 0.00 0.01 0.01 74 1017.5
20260507212920 71 123 4.0 5.0 0.00 0.01 0.01 72 1018.0
20260507212415 72 302 1.0 1.0 0.00 0.01 0.01 70 1017.9
20260507211912 72 296 1.0 1.0 0.00 0.01 0.01 71 1018.0
20260507211409 71 312 0.0 0.0 0.00 0.01 0.01 73 1018.1
20260507210906 71 302 1.0 2.0 0.00 0.01 0.01 74 1017.8
20260507210403 70 210 2.0 2.0 0.00 0.01 0.01 73 1018.0
20260507205859 71 211 2.0 2.0 0.00 0.01 0.01 72 1017.9
20260507205356 70 315 1.0 2.0 0.00 0.01 0.01 73 1018.1
20260507204852 69 317 0.0 1.0 0.00 0.01 0.01 74 1018.0
20260507204349 69 223 2.0 2.0 0.00 0.01 0.01 77 1018.1
20260507203847 69 229 2.0 2.0 0.00 0.01 0.01 75 1018.3
20260507203345 68 257 3.0 5.0 0.00 0.01 0.01 77 1018.2
20260507202841 70 253 3.0 3.0 0.00 0.01 0.01 74 1018.3
20260507202337 69 355 0.0 1.0 0.00 0.01 0.01 77 1018.3
20260507201833 68 249 2.0 2.0 0.00 0.01 0.01 76 1018.3
20260507201328 68 255 2.0 2.0 0.00 0.01 0.01 78 1018.5
20260507200825 67 17 2.0 2.0 0.00 0.01 0.01 80 1018.3
20260507200321 67 236 1.0 1.0 0.00 0.01 0.01 80 1018.5
20260507195817 66 310 0.0 0.0 0.00 0.01 0.01 81 1018.4
20260507195315 66 120 3.0 3.0 0.00 0.01 0.01 81 1018.2
20260507194812 66 49 3.0 3.0 0.00 0.01 0.01 82 1018.5
20260507194308 64 66 4.0 5.0 0.00 0.01 0.01 84 1018.6
20260507193805 64 281 2.0 2.0 0.00 0.01 0.01 83 1018.4
20260507193302 64 79 1.0 2.0 0.00 0.01 0.01 84 1018.6
20260507192757 64 298 0.0 0.0 0.00 0.01 0.01 85 1018.6
20260507192255 63 286 1.0 2.0 0.00 0.01 0.01 86 1018.8
20260507191750 63 67 1.0 2.0 0.00 0.01 0.01 87 1018.7
20260507191248 62 8 0.0 1.0 0.00 0.01 0.01 89 1018.8
20260507190744 62 113 1.0 2.0 0.00 0.01 0.01 89 1018.8
20260507190243 62 52 3.0 3.0 0.00 0.01 0.01 88 1018.9
20260507185741 61 138 3.0 3.0 0.00 0.01 0.01 88 1018.9
20260507185237 61 249 1.0 2.0 0.00 0.01 0.01 91 1019.0
20260507184735 60 55 1.0 2.0 0.00 0.01 0.01 93 1019.0
20260507184233 59 250 1.0 1.0 0.00 0.01 0.01 95 1018.9
20260507183729 58 3 0.0 1.0 0.00 0.01 0.01 99 1019.0
20260507183226 58 52 2.0 3.0 0.00 0.01 0.01 99 1019.1
20260507182724 58 306 0.0 0.0 0.00 0.01 0.01 99 1019.1
20260507182219 57 317 0.0 1.0 0.00 0.01 0.01 99 1019.2
20260507181716 56 260 2.0 2.0 0.00 0.01 0.01 99 1019.1
20260507181212 57 262 0.0 1.0 0.00 0.01 0.01 99 1019.2
20260507180710 56 342 0.0 1.0 0.00 0.01 0.01 99 1019.3
20260507180206 55 300 0.0 0.0 0.00 0.01 0.01 99 1019.1
20260507175701 56 309 0.0 0.0 0.00 0.01 0.01 99 1019.2
20260507175159 55 321 0.0 0.0 0.00 0.01 0.01 99 1019.3
20260507174656 55 295 1.0 1.0 0.00 0.01 0.01 99 1019.3
20260507174154 55 265 2.0 2.0 0.00 0.01 0.01 99 1019.3
20260507173651 55 293 2.0 2.0 0.00 0.01 0.01 99 1019.3
20260507173147 54 268 1.0 2.0 0.00 0.01 0.01 99 1019.3
20260507172644 53 290 0.0 0.0 0.00 0.01 0.01 99 1019.1
20260507172141 54 351 0.0 0.0 0.00 0.01 0.01 99 1019.2
20260507171636 54 295 0.0 0.0 0.00 0.01 0.01 99 1019.2
20260507171133 52 351 0.0 0.0 0.00 0.01 0.01 99 1019.3
20260507170630 52 340 0.0 0.0 0.00 0.01 0.01 99 1019.3
20260507170127 52 301 0.0 0.0 0.00 0.01 0.01 99 1019.3
20260507165622 52 309 0.0 0.0 0.00 0.01 0.01 99 1019.3
20260507165119 52 308 0.0 0.0 0.00 0.01 0.01 99 1019.2
20260507164615 52 321 0.0 1.0 0.00 0.01 0.01 99 1019.3
20260507164112 51 29 0.0 0.0 0.00 0.01 0.01 99 1019.1
20260507163609 51 333 0.0 0.0 0.00 0.01 0.01 99 1019.2
20260507163107 51 4 0.0 0.0 0.00 0.01 0.01 99 1019.1
20260507162602 51 71 0.0 0.0 0.00 0.01 0.01 99 1019.4
20260507162059 51 21 0.0 0.0 0.00 0.01 0.01 99 1019.2
20260507161555 51 33 0.0 0.0 0.00 0.01 0.01 99 1019.1
20260507161052 51 358 0.0 0.0 0.00 0.01 0.01 99 1019.2
20260507160548 50 23 0.0 0.0 0.00 0.01 0.01 99 1019.2
20260507160045 51 345 0.0 0.0 0.00 0.01 0.01 99 1019.0
20260507155540 51 2 0.0 0.0 0.00 0.01 0.01 99 1019.0
20260507155037 50 13 0.0 0.0 0.00 0.01 0.01 99 1019.0
20260507154534 51 9 0.0 0.0 0.00 0.01 0.01 99 1018.9
20260507154031 50 342 0.0 0.0 0.00 0.01 0.01 99 1018.9
20260507153528 50 3 0.0 0.0 0.00 0.01 0.01 99 1019.0
20260507153024 50 68 1.0 2.0 0.00 0.01 0.01 99 1018.9
20260507152520 50 108 2.0 2.0 0.00 0.01 0.01 99 1018.8
20260507152017 50 349 0.0 0.0 0.00 0.01 0.01 99 1018.9
20260507151513 50 54 2.0 2.0 0.00 0.01 0.01 99 1019.1
20260507151010 50 58 0.0 1.0 0.00 0.01 0.01 99 1019.0
20260507150507 50 8 0.0 0.0 0.00 0.01 0.01 99 1018.9
20260507150004 50 67 0.0 0.0 0.00 0.01 0.01 99 1018.9
20260507145459 50 353 0.0 0.0 0.05 0.01 0.01 99 1019.2
20260507144956 50 28 1.0 1.0 0.05 0.01 0.01 99 1018.9
20260507144452 50 24 0.0 0.0 0.00 0.00 0.00 99 1018.9
20260507143944 50 352 0.0 1.0 0.00 0.00 0.00 99 1018.9
20260507143442 49 347 1.0 1.0 0.00 0.00 0.00 99 1018.8
20260507142938 49 33 0.0 0.0 0.00 0.00 0.00 99 1018.8
20260507142434 49 50 2.0 2.0 0.00 0.00 0.00 99 1018.9
20260507141932 49 46 1.0 2.0 0.00 0.00 0.00 99 1018.7
20260507141427 49 18 1.0 1.0 0.00 0.00 0.00 99 1018.9
20260507140924 49 43 0.0 1.0 0.00 0.00 0.00 99 1018.6
20260507140420 49 353 0.0 0.0 0.00 0.00 0.00 99 1018.6
20260507135919 49 351 0.0 0.0 0.00 0.00 0.00 99 1018.6
20260507135415 49 54 0.0 0.0 0.00 0.00 0.00 99 1018.5
20260507134912 49 16 0.0 0.0 0.00 0.00 0.00 99 1018.6
20260507134409 49 13 0.0 0.0 0.00 0.00 0.00 99 1018.5
20260507133904 49 22 2.0 2.0 0.00 0.00 0.00 99 1018.3
20260507133400 49 350 0.0 0.0 0.00 0.00 0.00 99 1018.1
20260507132854 49 16 0.0 1.0 0.00 0.00 0.00 99 1018.3
20260507132349 49 9 0.0 0.0 0.00 0.00 0.00 99 1018.2
20260507131846 49 8 0.0 1.0 0.00 0.00 0.00 99 1018.1
20260507131342 50 315 0.0 0.0 0.00 0.00 0.00 99 1018.2
20260507130840 49 340 0.0 0.0 0.00 0.00 0.00 99 1018.2
20260507130337 49 354 0.0 0.0 0.00 0.00 0.00 99 1018.2
20260507125837 49 310 0.0 0.0 0.00 0.00 0.00 99 1018.1
20260507125333 49 26 0.0 0.0 0.00 0.00 0.00 99 1018.1
20260507124831 49 327 0.0 0.0 0.00 0.00 0.00 99 1018.1
20260507124327 49 311 0.0 0.0 0.00 0.00 0.00 99 1018.1
20260507123826 49 311 0.0 0.0 0.00 0.00 0.00 99 1018.0
20260507123322 49 324 0.0 0.0 0.00 0.00 0.00 99 1018.2
20260507122818 49 332 0.0 0.0 0.00 0.00 0.00 99 1018.1
20260507122313 49 354 0.0 1.0 0.00 0.00 0.00 99 1018.0
20260507121809 49 11 1.0 1.0 0.00 0.00 0.00 99 1018.1
20260507121301 49 343 0.0 0.0 0.00 0.00 0.00 99 1018.1
20260507120757 49 0 0.0 0.0 0.00 0.00 0.00 99 1018.1
20260507120253 50 347 0.0 0.0 0.00 0.00 0.00 99 1018.1
20260507115750 50 319 0.0 0.0 0.00 0.00 0.00 99 1018.1
20260507115245 50 318 0.0 0.0 0.00 0.00 0.00 99 1018.3
20260507114741 50 338 0.0 0.0 0.00 0.00 0.00 99 1018.2
20260507114238 50 336 0.0 0.0 0.00 0.00 0.00 99 1018.2
20260507113736 50 331 0.0 0.0 0.00 0.00 0.00 99 1018.2
20260507113233 50 319 0.0 0.0 0.00 0.00 0.00 99 1018.3
20260507112731 49 16 0.0 0.0 0.00 0.00 0.00 99 1018.3
20260507112227 50 12 0.0 0.0 0.00 0.00 0.00 99 1018.2
20260507111724 49 7 0.0 0.0 0.00 0.00 0.00 99 1018.4
20260507111221 49 329 0.0 0.0 0.00 0.00 0.00 99 1018.4
20260507110717 49 357 0.0 0.0 0.00 0.00 0.00 99 1018.3
20260507110214 49 337 0.0 0.0 0.00 0.00 0.00 99 1018.3
20260507105711 49 24 0.0 0.0 0.00 0.00 0.00 99 1018.5
20260507105207 49 334 0.0 0.0 0.00 0.00 0.00 99 1018.4
20260507104704 49 16 0.0 0.0 0.00 0.00 0.00 99 1018.2
20260507104201 49 341 0.0 0.0 0.00 0.00 0.00 99 1018.3
20260507103657 49 357 0.0 0.0 0.00 0.00 0.00 99 1018.4
20260507103153 49 39 3.0 3.0 0.00 0.00 0.00 99 1018.5
20260507102650 49 24 0.0 0.0 0.00 0.00 0.00 99 1018.4
20260507102146 49 321 0.0 0.0 0.00 0.00 0.00 99 1018.4
20260507101642 49 321 0.0 0.0 0.00 0.00 0.00 99 1018.7
20260507101138 49 21 0.0 0.0 0.00 0.00 0.00 99 1018.3
20260507100635 49 46 1.0 1.0 0.00 0.00 0.00 99 1018.4
20260507100134 49 51 0.0 0.0 0.00 0.00 0.00 99 1018.5
20260507095631 49 356 0.0 1.0 0.00 0.00 0.00 99 1018.6
20260507095127 49 356 0.0 0.0 0.00 0.00 0.00 99 1018.6
20260507094624 49 75 0.0 0.0 0.00 0.00 0.00 99 1018.5
20260507094121 49 351 0.0 0.0 0.00 0.00 0.00 99 1018.3
20260507093618 49 348 0.0 0.0 0.00 0.00 0.00 99 1018.3
20260507093117 49 334 0.0 0.0 0.00 0.00 0.00 99 1018.6
20260507092613 49 346 0.0 0.0 0.00 0.00 0.00 99 1018.7
20260507092110 49 78 1.0 1.0 0.00 0.00 0.00 99 1018.6
20260507091607 49 28 1.0 1.0 0.00 0.00 0.00 99 1018.7
20260507091103 49 342 0.0 0.0 0.00 0.00 0.00 99 1018.5
20260507090559 50 333 0.0 0.0 0.00 0.00 0.00 99 1018.8
20260507090055 50 341 0.0 0.0 0.00 0.00 0.00 99 1018.7
20260507085553 50 330 0.0 0.0 0.00 0.00 0.00 99 1018.7
20260507085049 50 333 0.0 0.0 0.00 0.00 0.00 99 1018.7
20260507084545 50 52 1.0 1.0 0.00 0.00 0.00 99 1018.6
20260507084037 50 35 1.0 1.0 0.00 0.00 0.00 99 1018.8
20260507083533 50 331 0.0 0.0 0.00 0.00 0.00 99 1018.9
20260507083031 50 306 0.0 0.0 0.00 0.00 0.00 99 1018.8
20260507082526 50 2 0.0 0.0 0.00 0.00 0.00 99 1018.7
20260507082023 50 5 1.0 1.0 0.00 0.00 0.00 99 1018.8
20260507081519 50 337 0.0 0.0 0.00 0.00 0.00 99 1018.7
20260507081017 50 337 0.0 0.0 0.00 0.00 0.00 99 1018.7
20260507080512 50 314 0.0 0.0 0.00 0.00 0.00 99 1018.7
20260507080009 50 314 0.0 0.0 0.00 0.00 0.00 99 1018.6
20260507075504 50 312 0.0 0.0 0.00 0.00 0.00 99 1018.7
20260507075001 50 358 0.0 0.0 0.00 0.00 0.00 99 1018.9
20260507074457 50 352 0.0 0.0 0.00 0.00 0.00 99 1018.7
20260507073956 50 334 0.0 0.0 0.00 0.00 0.00 99 1018.7
20260507073452 50 83 0.0 0.0 0.00 0.00 0.00 99 1018.6
20260507072948 50 354 0.0 0.0 0.00 0.00 0.00 99 1018.9
20260507072446 49 330 0.0 0.0 0.00 0.00 0.00 99 1018.8
20260507071943 48 312 0.0 0.0 0.00 0.00 0.00 99 1018.6
20260507071440 48 312 0.0 0.0 0.00 0.00 0.00 99 1018.5